Flight Information

DEPARTURE
PRESCOTT, AZ
Elevation:
5045
Runways:
3L/21R - 4846x60 - ASPH-G
3R/21L - 7619x150 - ASPH-G
12/30 - 4408x75 - ASPH-G
ATIS:
127.2
Ground:
121.7
Tower:
PRESCOTT TOWER 125.3
DESTINATION
,
Elevation:
TPA:
1000 (est.)


6496.8 NM77° True-13° Var63° HDG

Flight Plan:
(click to file on line)

1. Type
2. Aircraft Identification
3. Aircraft Type / Special Equipment
4. True Airspeed
kts
5. Departure Airport
(ICAO code)
6. Arriving Airport
(ICAO code)
7. Cruising Altitude
ft
8. Alternate Airport
(ICAO code)
9. Route of Flight
10. Remarks


00:00:00 Departure ATIS: Destination ATIS:

Clearance Limit:
Route:
Altitude: Expect in minutes
Frequency:
Transponder: (7500 Hijack / 7600 Lost Comms / 7700 Emergency)


KPRC 190053Z 17003KT 10SM OVC110 12/M16 A2985 RMK AO2 SLP084 T01171156
Time: 2021-01-19T00:53:00Z
1611019576
Winds: 170 @ 3 kts
Visibility: 10.0 sm
Clouds (AGL): OVC 11000
Temperature: 11.7 C
Dew Point: -15.6 C
Pressure: 29.84941 in Hgbr


Notes:

Data extracted from FAA Digital Chart Supplement. Effective: 0901Z Thursday, Dec 31, 2020 to 0901Z Thursday, Jan 28, 2021
Current ATIS data is provided courtisy of PilotEdge.